This demonstration page uses our WeatherBlox Daily Observations layout. Learn more.

Left ArrowRight Arrow

41.12389, -100.76542

Hourly Observations for March 14, 2015

Temp ( °F °C ) Dew Point ( °F °C ) Humidity (%) Winds ( mph kmh ) Pressure ( in mb ) Visibility ( mi km ) Precip ( " mm )
12:53 am 00:53 Clear 41 5 24 -4.4 51 51 NNE 8 13 30.32 1027 10 16 0.00 0.00
1:53 am 01:53 Clear 39 3.9 24 -4.4 55 55 Calm 30.32 1027 10 16 0.00 0.00
2:53 am 02:53 Clear 36 2.2 24 -4.4 62 62 Calm 30.34 1028 10 16 0.00 0.00
3:53 am 03:53 Clear 30 -1.1 25 -3.9 82 82 WNW 3 6 30.36 1028 10 16 0.00 0.00
4:53 am 04:53 Clear 28 -2.2 24 -4.4 85 85 WNW 5 7 30.35 1028 10 16 0.00 0.00
5:53 am 05:53 Clear 26 -3.3 22 -5.6 84 84 Calm 30.38 1029 10 16 0.00 0.00
6:53 am 06:53 Clear 25 -3.9 22 -5.6 88 88 NW 5 7 30.40 1029 10 16 0.00 0.00
7:53 am 07:53 Clear 21 -6.1 19 -7.2 92 92 NW 6 9 30.42 1030 10 16 0.00 0.00
8:53 am 08:53 Sunny 28 -2.2 24 -4.4 85 85 NW 3 6 30.43 1030 10 16 0.00 0.00
9:53 am 09:53 Sunny 39 3.9 28 -2.2 65 65 WNW 6 9 30.42 1030 10 16 0.00 0.00
10:53 am 10:53 Sunny 48 8.9 28 -2.2 46 46 W 5 7 30.40 1030 10 16 0.00 0.00
11:53 am 11:53 Sunny 56 13.3 26 -3.3 32 32 S 5 7 30.37 1028 10 16 0.00 0.00
12:53 pm 12:53 Sunny 60 15.6 18 -7.8 19 19 S 9 15 30.33 1027 10 16 0.00 0.00
1:53 pm 13:53 Sunny 63 17.2 18 -7.8 17 17 SSW 9 15 30.30 1026 10 16 0.00 0.00
2:53 pm 14:53 Sunny 63 17.2 19 -7.2 18 18 SW 8 13 30.27 1025 10 16 0.00 0.00
3:53 pm 15:53 Sunny 66 18.9 19 -7.2 16 16 S 14 22 30.24 1024 10 16 0.00 0.00
4:53 pm 16:53 Sunny 65 18.3 18 -7.8 16 16 SSW 12 19 30.23 1024 10 16 0.00 0.00
5:53 pm 17:53 Sunny 65 18.3 18 -7.8 16 16 S 12 19 30.22 1023 10 16 0.00 0.00
6:53 pm 18:53 Sunny 62 16.7 19 -7.2 19 19 SSW 9 15 30.21 1023 10 16 0.00 0.00
7:53 pm 19:53 Clear 54 12.2 19 -7.2 25 25 S 8 13 30.22 1023 10 16 0.00 0.00
8:53 pm 20:53 Clear 50 10 19 -7.2 29 29 S 9 15 30.21 1023 10 16 0.00 0.00
9:53 pm 21:53 Clear 49 9.4 17 -8.3 28 28 S 9 15 30.18 1022 10 16 0.00 0.00
10:53 pm 22:53 Clear 47 8.3 17 -8.3 30 30 S 9 15 30.16 1021 10 16 0.00 0.00
11:53 pm 23:53 Clear 48 8.9 16 -8.9 28 28 S 6 9 30.14 1021 10 16 0.00 0.00

Powered by AerisWeather